www.pogodaiklimat.ru

Погода и климат >> Архив погоды >> Россия >> Хабаровский край >> Байдуков


ПОГОДА в Байдукове

  • Прогноз погоды в Байдукове
  • Монитор погоды в Байдукове
  • Климат города

АРХИВ ПОГОДЫ в Байдукове

Время (UTC), дата Ветер
(напр.,м/с)
 
Видим.   Явления Облачность Т
(С)
Тd
(С)
f
(%)
Тe
(С)
Тes
(С)
Комфортность P
(гПа)
Po
(гПа)
Тmin
(С)
Tmax
(С)
R
(мм)
R24
(мм)
S
(см)
21 12.10 З 6 50 км 10 баллов +2.6 -2.3 70 -3 -3 1013.9 1013.3 +1.0
03 13.10 С 6
{11}
50 км 10/5 600 м
[Cb cap Ac trans]
+4.7 -0.3 70 -0 0 1013.3 1012.3
09 13.10 С 4 50 км в посл. час ливневой дождь 7 баллов +1.0 -0.9 87 -4 -4 1015.3 1014.7 +5.2 0.3
15 13.10 З 5 50 км 1/1 600 м
[Cb cap]
+1.3 -4.7 64 -4 -4 1014.4 1013.8
21 13.10 ЮЗ 4 50 км 10 баллов +0.1 -4.7 70 -5 -5 1015.3 1014.7 0.0
03 14.10 З 6
{10}
50 км 10/3 600 м
[Cb cap Ac trans]
+4.5 -4.3 53 -0 0 1014.2 1013.6
09 14.10 СЗ 4 50 км 10 баллов +1.9 -4.6 62 -3 -3 1016.6 1016.0 +4.5
15 14.10 З 4 50 км 10/10 600 м
[Cb cap]
+0.9 -4.4 68 -4 -4 1016.2 1015.2
21 14.10 З 4 50 км 10 баллов +0.3 -6.5 60 -5 -5 1016.6 1016.0 -0.2
03 15.10 СЗ 8
{12}
50 км 9/9 600 м
[Cb cap]
+3.9 -1.2 69 -2 -2 1016.0 1015.0
09 15.10 З 6
{13}
50 км {ливн. осадки} 3/3 600 м
[Cb cap]
+1.3 -3.4 71 -5 -5 1016.8 1016.2 +5.3 0.9
15 15.10 З 7
{10}
50 км ясно +0.7 -6.4 59 -6 -6 1017.1 1016.1
21 15.10 З 7
{12}
50 км 8/3 600 м
[Sc Ac trans]
-0.2 -4.8 71 -7 -7 1016.6 1015.6 -1.3
03 16.10 З 7
{10}
50 км 8/6 600 м
[Sc diur, vesp Ci fib]
+4.3 -4.5 53 -1 -0 1015.2 1014.6
09 16.10 З 7
{13}
20 км {ливн. осадки} 8/8 600 м
[Cb cap]
-1.1 -2.9 88 -9 -9 1016.7 1015.7 +4.4 2
15 16.10 З 9-12
{12}
20 км ясно -0.9 -5.1 73 -9 -9 1015.2 1014.6
21 16.10 З 8-10
{12}
50 км 6/3 600 м
[Sc Ac trans]
-1.9 -5.2 78 -10 -10 1015.7 1014.7 -1.9 3
03 17.10 СЗ 8 50 км 6 баллов +1.5 -6.1 57 -5 -5 1016.6 1016.0
09 17.10 З 9-12
{12}
10 км в посл. час ливневой снег 8/8 600 м
[Cb cap]
-1.7 -3.7 86 -10 -10 1018.6 1017.6 +1.7 0.5
15 17.10 З 10 10 км 6 баллов -1.7 -4.9 79 -10 -10 1019.3 1018.7
21 17.10 З 9-11
{13}
10 км 10/10 600 м
[Cb cap]
-1.7 -3.0 91 -10 -10 1020.5 1019.4 -2.3 4
03 18.10 З 9 50 км 7 баллов +1.6 -2.5 74 -6 -5 1021.9 1021.3
09 18.10 З 7 50 км 2 балла +0.9 -4.5 67 -6 -6 1023.3 1022.7 +2.4 2
15 18.10 З 4 50 км ясно -1.5 -7.4 64 -7 -7 1022.9 1022.3
21 18.10 З 3 50 км 3/3 600 м
[Sc]
-4.0 -8.5 71 -9 -9 1022.6 1022.0 -4.1 3
03 19.10 С 2 50 км 4/3 600 м
[Sc Ci fib]
+2.5 -6.2 53 0 +3 1022.0 1021.4
09 19.10 Ю 1 50 км 2 балла +0.9 -3.9 70 -1 -1 1023.3 1022.7 +2.8
15 19.10 Ю 2 50 км ясно -2.7 -5.0 84 -7 -7 1023.4 1022.8

 

Местоположение метеостанции Байдуков (Хабаровский край, Россия): широта 53.30 долгота 141.40 высота над уровнем моря 5 м.

В архиве по умолчанию представлена погода в Байдукове за последнюю неделю. Архивные данные за месяц целиком и за предыдущие месяцы, начиная с января 2011 года, Вы можете получить, выбрав интересующий диапазон дат из раскрывающегося списка и нажав кнопку "Ввод!".

Внимание! Время в таблицах - всемирное. Для получения местного времени необходимо прибавить поправку, которая в Байдукове равна 10 ч.

Смотрите также архив погоды в соседних городах и на ближайших метеорологических станциях:

Погода в Николаевск-на-Амуре (Хабаровский край, Россия) (50 км)
Погода в Джаоре (Хабаровский край, Россия) (71 км)
Погода в Москальво (Сахалинская область, Россия) (79 км)
Погода в Оха (Сахалинская область, Россия) (102 км)
Погода в Литке (Хабаровский край, Россия) (102 км)
Погода в Одопту (Сахалинская область, Россия) (120 км)
Погода в Погибях (Сахалинская область, Россия) (121 км)
Погода в Богородском (Хабаровский край, Россия) (122 км)
Погода в Ныврово (Сахалинская область, Россия) (139 км)
Погода в Вал (Сахалинская область, Россия) (152 км)

Пояснения к столбцам:

Ветер - указаны скорость ветра в м/с - средняя за 10 мин, порывы в срок и между сроками (в фигурных скобках) и направление, откуда дует ветер: С - северный, СВ - северо-восточный, В - восточный, ЮВ - юго-восточный, Ю - южный, ЮЗ - юго-западный, З - западный, СЗ - северо-западный.
Видимость - горизонтальная дальность видимости в метрах или километрах. При видимости от 1 до 10 км при отсутствии осадков обычно наблюдается дымка, при ухудшении видимости до 1 км и менее - туман. В сухую погоду видимость может ухудшаться дымом, пылью или мглою.
Явления - указаны атмосферные явления, наблюдавшиеся в срок или в последний час перед сроком; фигурными скобками обозначены явления, наблюдавшиеся между сроками (за 1-3 часа до срока); квадратными скобками обозначены град или гололедные отложения с указанием их диаметра в мм.
Облачность - указаны через наклонную черту общая и нижняя облачность в баллах и высота нижней границы облаков в метрах; квадратными скобками обозначены формы облаков: Ci - перистые, Cs - перисто-слоистые, Cc - перисто-кучевые, Ac - высококучевые, As - высокослоистые, Sc - слоисто-кучевые, Ns - слоисто-дождевые, Cu - кучевые, Cb - кучево-дождевые. Подробнее классификацию облаков см. в Атласе облаков (PDF).
T - Температура воздуха - температура, измеренная на высоте 2 м над землей.
Td - Температура точки росы - температура, при понижении до которой содержащийся в воздухе водяной пар достигнет насыщения.
f - Относительная влажность воздуха - влажноcть воздуха, измеренная на высоте 2 м над землей.
Te - Эффективная температура - температура, которую ощущает одетый по сезону человек в тени. Характеристика душности погоды. При расчете учитывается влияние влажности воздуха и скорости ветра на теплоощущения человека.
Tes - Эффективная температура на солнце - температура, которую ощущает человек, с поправкой на солнечный нагрев. Характеристика знойности погоды. Зависит от высоты солнца над горизонтом, облачности и скорости ветра. Ночью, в пасмурную погоду, а также при ветре 12 м/с и более поправка равна нулю.
P - Атмосферное давление - приведенное к уровню моря атмосферное давление.
Po - Атмосферное давление - измеренное на уровне метеостанции атмосферное давление.
Tmin - Минимальная температура - минимум температуры воздуха на высоте 2 м над землей.
Tmax - Максимальная температура - максимум температуры воздуха на высоте 2 м над землей.
R - Количество осадков - Количество выпавших осадков за период времени, мм. При наведении курсора мыши на число - период времени, за который выпало указанное количество осадков.
R24 - Количество осадков - Количество выпавших осадков за 24 часа, мм.
S - Снежный покров - Высота снежного покрова, см. При наведении курсора мыши на число - состояние снежного покрова и степень покрытия местности в баллах.